Eugene, OR

2:31 AM PST on November 18, 2017 (GMT -0800)
Mahlon Sweet

Weather History for KEUG - October, 2011

Change the Weather History Date:

Sunday, October 2, 2011

  Actual Average Record
Temperature  
Mean Temperature 60 °F 57 °F  
Max Temperature 64 °F 71 °F 94 °F (1980)
Min Temperature 56 °F 44 °F 32 °F (1950)
Degree Days  
Heating Degree Days 5 8  
Month to date heating degree days 9 16  
Since 1 July heating degree days 133 204  
Cooling Degree Days 0 0  
Month to date cooling degree days 0 0  
Year to date cooling degree days 231 238  
Growing Degree Days 10 (Base 50)    
Moisture  
Dew Point 55 °F    
Average Humidity 83    
Maximum Humidity 93    
Minimum Humidity 73    
Precipitation  
Precipitation 0.10 in 0.05 in 1.38 in (1967)
Month to date precipitation 0.17 0.11  
Year to date precipitation 22.07 27.41  
Snow  
Snow 0.00 in - - ()
Month to date snowfall 0.0  
Since 1 July snowfall 0.0  
Since 1 September snowfall 0.0  
Snow Depth 0.00 in    
Sea Level Pressure  
Sea Level Pressure 29.93 in    
Wind  
Wind Speed 3 mph (SSW)    
Max Wind Speed 10 mph    
Max Gust Speed 14 mph    
Visibility 9 miles    
Events Rain    
T = Trace of Precipitation, MM = Missing Value Source: NWS Daily Summary

Daily Weather History Graph

Daily Weather History Graph

Search for Another Location

Airport or City:

Trip Planner

Search our weather history database for the weather conditions in past years. The results will help you decide how hot, cold, wet, or windy it might be!

Date:

Astronomy

Oct. 02, 2011 Rise Set
Actual Time 7:11 AM PDT 6:52 PM PDT
Civil Twilight 6:42 AM PDT 7:20 PM PDT
Nautical Twilight 6:09 AM PDT 7:54 PM PDT
Astronomical Twilight 5:35 AM PDT 8:28 PM PDT
Moon 1:35 PM PDT (10/2) 10:44 PM PDT (10/2)
Length of Visible Light 12h 38m
Length of Day
11h 40m
Waxing Crescent, 36% of the Moon is Illuminated
Oct 2
Waxing Crescent
Oct 3
First Quarter
Oct 11
Full
Oct 19
Last Quarter
Oct 26
New

Hourly Weather History & Observations

Time (PDT) Temp. Dew Point Humidity Pressure Visibility Wind Dir Wind Speed Gust Speed Precip Events Conditions
12:54 AM 55.9 °F 54.0 °F 93% 29.95 in 7.0 mi NW 3.5 mph - 0.01 in Rain Light Rain
1:54 AM 55.9 °F 54.0 °F 93% 29.95 in 8.0 mi Calm Calm - 0.02 in Rain Light Rain
2:54 AM 55.9 °F 54.0 °F 93% 29.95 in 8.0 mi Calm Calm - 0.00 in   Overcast
3:54 AM 55.9 °F 54.0 °F 93% 29.94 in 10.0 mi Calm Calm - 0.00 in   Overcast
4:54 AM 55.9 °F 54.0 °F 93% 29.94 in 9.0 mi Calm Calm - N/A   Overcast
5:19 AM 55.4 °F 53.6 °F 94% 29.94 in 10.0 mi Calm Calm - N/A   Overcast
5:54 AM 57.0 °F 54.0 °F 89% 29.94 in 10.0 mi Calm Calm - N/A   Overcast
6:38 AM 57.2 °F 53.6 °F 88% 29.94 in 10.0 mi Calm Calm - N/A   Mostly Cloudy
6:54 AM 57.0 °F 54.0 °F 89% 29.94 in 10.0 mi Calm Calm - N/A   Overcast
7:09 AM 55.4 °F 53.6 °F 94% 29.95 in 10.0 mi Calm Calm - N/A   Overcast
7:24 AM 57.2 °F 53.6 °F 88% 29.95 in 10.0 mi Calm Calm - N/A   Overcast
7:54 AM 57.0 °F 55.0 °F 93% 29.95 in 10.0 mi Calm Calm - N/A   Mostly Cloudy
8:05 AM 57.2 °F 55.4 °F 94% 29.95 in 6.0 mi Calm Calm - N/A   Mostly Cloudy
8:30 AM 57.2 °F 55.4 °F 94% 29.94 in 5.0 mi SSE 3.5 mph - N/A   Mostly Cloudy
8:54 AM 57.9 °F 55.9 °F 93% 29.95 in 6.0 mi South 5.8 mph - N/A   Overcast
9:54 AM 59.0 °F 55.9 °F 90% 29.96 in 10.0 mi SSW 4.6 mph - 0.00 in   Overcast
10:12 AM 60.8 °F 55.4 °F 82% 29.96 in 10.0 mi WSW 3.5 mph - N/A   Mostly Cloudy
10:47 AM 60.8 °F 55.4 °F 82% 29.96 in 10.0 mi WSW 3.5 mph - N/A   Overcast
10:54 AM 60.1 °F 55.9 °F 86% 29.96 in 10.0 mi West 3.5 mph - N/A   Overcast
11:54 AM 59.0 °F 55.0 °F 87% 29.95 in 7.0 mi Calm Calm - 0.02 in Rain Light Rain
12:54 PM 62.1 °F 57.0 °F 84% 29.94 in 10.0 mi SSW 5.8 mph - 0.02 in   Mostly Cloudy
1:46 PM 62.6 °F 55.4 °F 77% 29.92 in 10.0 mi SSW 3.5 mph - N/A   Mostly Cloudy
1:54 PM 63.0 °F 55.0 °F 75% 29.92 in 10.0 mi SSW 3.5 mph - N/A   Overcast
2:38 PM 64.4 °F 55.4 °F 73% 29.91 in 10.0 mi South 3.5 mph - N/A   Overcast
2:54 PM 64.4 °F 55.4 °F 73% 29.91 in 10.0 mi SSW 6.9 mph - N/A Rain Light Rain
3:54 PM 64.0 °F 55.9 °F 75% 29.90 in 10.0 mi SSW 3.5 mph - 0.00 in Rain Light Rain
4:54 PM 62.1 °F 55.0 °F 78% 29.89 in 10.0 mi South 4.6 mph - 0.01 in Rain Light Rain
5:54 PM 60.1 °F 55.9 °F 86% 29.89 in 10.0 mi SSE 5.8 mph - 0.02 in Rain Light Rain
6:54 PM 59.0 °F 54.0 °F 83% 29.88 in 10.0 mi South 8.1 mph - 0.01 in Rain Light Rain
7:54 PM 57.0 °F 53.1 °F 87% 29.88 in 10.0 mi SSE 6.9 mph - 0.02 in Rain Light Rain
8:54 PM 57.9 °F 55.0 °F 90% 29.86 in 10.0 mi SE 8.1 mph - 0.02 in Rain Light Rain
9:54 PM 57.0 °F 54.0 °F 89% 29.87 in 10.0 mi SSE 6.9 mph - 0.00 in Rain Light Rain
10:54 PM 55.9 °F 53.1 °F 90% 29.86 in 10.0 mi SSE 6.9 mph - 0.01 in Rain Light Rain
11:54 PM 55.0 °F 53.1 °F 93% 29.86 in 10.0 mi SSW 4.6 mph - 0.01 in Rain Light Rain